STARLINK-2720 (48653 NORAD) Tracking and Keplerian Element Data

This shows tracking and keplerian element data for the satellite.

Feedback or suggestion? Click here.




ElementValue
Catalog48653
NameSTARLINK-2720
Epoch Orbit2237
Epoch Day287.95655253
Epoch Year2021
RAAN134.51
Inclination53.0644
Eccentricity0.0002207
Argument of Perigee69.8288
Mean Anonmoly290.2939
Mean Motion15.06397163
Decay Rate-3.044E-05
L11 48653U 21044R 21287.95655253 -.00003044 00000-0 -18556-3 0 9998
L22 48653 53.0644 134.5100 0002207 69.8288 290.2939 15.06397163 22375

Live tracking and technical data element details for STARLINK-2720 (NORAD 48653). STARLINK-2720 can be tracked NOW for your location showing map with azimuth and elevation plus other details from your city location.

Track the satellite on the map from your city or location and see movement details for azimuth, elevation, latitude, longitude, range, height, and movement on the map or in text.







IsCatalogInMostPopularTable: catalog: 48653, numindb: 38
Update: records affected: 1



GetName: 48653 STARLINK-2720

Hit Count: updated at: Tue, 19 Oct 2021 09:09:22 GMT